| time (UTC) | temp C | wind direction | speed KPH | gust KPH | rain 1hr cm | rain 24hr cm | rain mn cm | humidity % | barometer mb |
| 20260503015332 | 7 | 9 | 0.0 | 0.0 | 0.00 | 0.00 | 0.00 | 63 | 1010.9 |
| 20260503014827 | 7 | 347 | 3.2 | 4.8 | 0.00 | 0.00 | 0.00 | 62 | 1011.1 |
| 20260503014325 | 7 | 332 | 3.2 | 3.2 | 0.00 | 0.00 | 0.00 | 61 | 1010.8 |
| 20260503013822 | 7 | 349 | 1.6 | 1.6 | 0.00 | 0.00 | 0.00 | 62 | 1010.6 |
| 20260503013320 | 7 | 351 | 1.6 | 1.6 | 0.00 | 0.00 | 0.00 | 61 | 1010.5 |
| 20260503012816 | 7 | 18 | 1.6 | 1.6 | 0.00 | 0.00 | 0.00 | 62 | 1010.8 |
| 20260503012314 | 7 | 347 | 0.0 | 1.6 | 0.00 | 0.00 | 0.00 | 61 | 1010.4 |
| 20260503011810 | 7 | 353 | 1.6 | 1.6 | 0.00 | 0.00 | 0.00 | 60 | 1010.6 |
| 20260503011308 | 7 | 2 | 3.2 | 3.2 | 0.00 | 0.00 | 0.00 | 60 | 1010.3 |
| 20260503010804 | 7 | 359 | 4.8 | 4.8 | 0.00 | 0.00 | 0.00 | 59 | 1010.3 |
| 20260503010301 | 8 | 356 | 3.2 | 3.2 | 0.00 | 0.00 | 0.00 | 58 | 1010.1 |
| 20260503005758 | 8 | 317 | 3.2 | 4.8 | 0.00 | 0.00 | 0.00 | 59 | 1010.2 |
| 20260503005255 | 8 | 304 | 3.2 | 4.8 | 0.00 | 0.00 | 0.00 | 59 | 1009.8 |
| 20260503004751 | 8 | 347 | 3.2 | 3.2 | 0.00 | 0.00 | 0.00 | 59 | 1009.9 |
| 20260503004250 | 8 | 1 | 0.0 | 0.0 | 0.00 | 0.00 | 0.00 | 60 | 1009.8 |
| 20260503003746 | 8 | 3 | 0.0 | 0.0 | 0.00 | 0.00 | 0.00 | 60 | 1009.7 |
| 20260503003243 | 8 | 6 | 0.0 | 0.0 | 0.00 | 0.00 | 0.00 | 60 | 1009.6 |
| 20260503002740 | 8 | 353 | 0.0 | 1.6 | 0.00 | 0.00 | 0.00 | 62 | 1009.5 |
| 20260503002237 | 8 | 339 | 1.6 | 1.6 | 0.00 | 0.00 | 0.00 | 58 | 1009.3 |
| 20260503001733 | 8 | 338 | 1.6 | 1.6 | 0.00 | 0.00 | 0.00 | 58 | 1009.3 |
| 20260503001229 | 8 | 346 | 0.0 | 1.6 | 0.00 | 0.00 | 0.00 | 57 | 1009.3 |
| 20260503000728 | 8 | 324 | 1.6 | 3.2 | 0.00 | 0.00 | 0.00 | 58 | 1009.3 |
| 20260503000226 | 8 | 348 | 0.0 | 1.6 | 0.00 | 0.00 | 0.00 | 58 | 1009.5 |
| 20260502235721 | 8 | 350 | 1.6 | 1.6 | 0.00 | 0.00 | 0.00 | 55 | 1009.1 |
| 20260502235220 | 9 | 0 | 0.0 | 0.0 | 0.00 | 0.00 | 0.00 | 57 | 1008.9 |
| 20260502234715 | 9 | 359 | 1.6 | 1.6 | 0.00 | 0.00 | 0.00 | 56 | 1009.3 |
| 20260502234213 | 9 | 6 | 3.2 | 4.8 | 0.00 | 0.00 | 0.00 | 54 | 1009.1 |
| 20260502233709 | 9 | 353 | 0.0 | 0.0 | 0.00 | 0.00 | 0.00 | 56 | 1008.8 |
| 20260502233206 | 10 | 324 | 1.6 | 1.6 | 0.00 | 0.00 | 0.00 | 54 | 1009.0 |
| 20260502232701 | 10 | 359 | 3.2 | 3.2 | 0.00 | 0.00 | 0.00 | 52 | 1008.7 |
| 20260502232159 | 10 | 284 | 4.8 | 4.8 | 0.00 | 0.00 | 0.00 | 50 | 1008.7 |
| 20260502231655 | 10 | 2 | 0.0 | 1.6 | 0.00 | 0.00 | 0.00 | 53 | 1008.7 |
| 20260502231153 | 10 | 337 | 0.0 | 0.0 | 0.00 | 0.00 | 0.00 | 50 | 1008.8 |
| 20260502230651 | 10 | 335 | 1.6 | 3.2 | 0.00 | 0.00 | 0.00 | 50 | 1008.8 |
| 20260502230150 | 10 | 340 | 0.0 | 1.6 | 0.00 | 0.00 | 0.00 | 51 | 1008.7 |
| 20260502225645 | 10 | 314 | 3.2 | 3.2 | 0.00 | 0.00 | 0.00 | 47 | 1008.7 |
| 20260502225143 | 10 | 338 | 1.6 | 1.6 | 0.00 | 0.00 | 0.00 | 51 | 1008.8 |
| 20260502224638 | 10 | 3 | 3.2 | 4.8 | 0.00 | 0.00 | 0.00 | 48 | 1008.7 |
| 20260502224136 | 10 | 317 | 1.6 | 1.6 | 0.00 | 0.00 | 0.00 | 46 | 1008.7 |
| 20260502223633 | 11 | 330 | 1.6 | 3.2 | 0.00 | 0.00 | 0.00 | 49 | 1008.7 |
| 20260502223131 | 11 | 33 | 1.6 | 1.6 | 0.00 | 0.00 | 0.00 | 47 | 1008.5 |
| 20260502222628 | 11 | 324 | 1.6 | 1.6 | 0.00 | 0.00 | 0.00 | 46 | 1008.5 |
| 20260502222124 | 11 | 354 | 1.6 | 1.6 | 0.00 | 0.00 | 0.00 | 48 | 1008.5 |
| 20260502221620 | 11 | 312 | 3.2 | 4.8 | 0.00 | 0.00 | 0.00 | 46 | 1008.5 |
| 20260502221118 | 11 | 22 | 3.2 | 4.8 | 0.00 | 0.00 | 0.00 | 46 | 1008.2 |
| 20260502220614 | 11 | 2 | 3.2 | 3.2 | 0.00 | 0.00 | 0.00 | 49 | 1008.1 |
| 20260502220110 | 11 | 0 | 0.0 | 0.0 | 0.00 | 0.00 | 0.00 | 48 | 1008.1 |
| 20260502215608 | 11 | 3 | 3.2 | 3.2 | 0.00 | 0.00 | 0.00 | 47 | 1008.1 |
| 20260502215104 | 11 | 2 | 1.6 | 3.2 | 0.00 | 0.00 | 0.00 | 44 | 1008.2 |
| 20260502214602 | 11 | 347 | 1.6 | 3.2 | 0.00 | 0.00 | 0.00 | 44 | 1008.3 |
| 20260502214059 | 11 | 6 | 1.6 | 1.6 | 0.00 | 0.00 | 0.00 | 43 | 1008.1 |
| 20260502213555 | 11 | 357 | 1.6 | 1.6 | 0.00 | 0.00 | 0.00 | 44 | 1008.2 |
| 20260502213053 | 11 | 7 | 3.2 | 3.2 | 0.00 | 0.00 | 0.00 | 45 | 1008.3 |
| 20260502212552 | 12 | 309 | 1.6 | 1.6 | 0.00 | 0.00 | 0.00 | 43 | 1008.1 |
| 20260502212049 | 11 | 351 | 1.6 | 3.2 | 0.00 | 0.00 | 0.00 | 43 | 1008.0 |
| 20260502211545 | 11 | 333 | 1.6 | 1.6 | 0.00 | 0.00 | 0.00 | 44 | 1008.2 |
| 20260502211042 | 11 | 316 | 1.6 | 3.2 | 0.00 | 0.00 | 0.00 | 43 | 1008.2 |
| 20260502210539 | 11 | 359 | 3.2 | 3.2 | 0.00 | 0.00 | 0.00 | 44 | 1008.3 |
| 20260502210036 | 11 | 12 | 3.2 | 3.2 | 0.00 | 0.00 | 0.00 | 44 | 1008.1 |
| 20260502205533 | 11 | 328 | 3.2 | 3.2 | 0.00 | 0.00 | 0.00 | 44 | 1008.0 |
| 20260502205030 | 11 | 330 | 4.8 | 6.4 | 0.00 | 0.00 | 0.00 | 45 | 1008.0 |
| 20260502204526 | 11 | 341 | 0.0 | 1.6 | 0.00 | 0.00 | 0.00 | 45 | 1008.1 |
| 20260502204024 | 11 | 335 | 4.8 | 6.4 | 0.00 | 0.00 | 0.00 | 45 | 1008.0 |
| 20260502203520 | 11 | 337 | 4.8 | 4.8 | 0.00 | 0.00 | 0.00 | 46 | 1008.0 |
| 20260502203017 | 11 | 357 | 0.0 | 1.6 | 0.00 | 0.00 | 0.00 | 45 | 1008.1 |
| 20260502202513 | 11 | 354 | 3.2 | 4.8 | 0.00 | 0.00 | 0.00 | 45 | 1008.1 |
| 20260502202012 | 11 | 351 | 0.0 | 0.0 | 0.00 | 0.00 | 0.00 | 50 | 1008.1 |
| 20260502201508 | 11 | 348 | 1.6 | 1.6 | 0.00 | 0.00 | 0.00 | 46 | 1008.3 |
| 20260502201004 | 11 | 350 | 1.6 | 1.6 | 0.00 | 0.00 | 0.00 | 45 | 1008.2 |
| 20260502200500 | 11 | 341 | 3.2 | 3.2 | 0.00 | 0.00 | 0.00 | 46 | 1008.0 |
| 20260502195958 | 11 | 333 | 4.8 | 4.8 | 0.00 | 0.00 | 0.00 | 44 | 1008.0 |
| 20260502195456 | 11 | 343 | 0.0 | 1.6 | 0.00 | 0.00 | 0.00 | 47 | 1008.1 |
| 20260502194951 | 11 | 280 | 6.4 | 6.4 | 0.00 | 0.00 | 0.00 | 44 | 1008.1 |
| 20260502194448 | 11 | 341 | 3.2 | 3.2 | 0.00 | 0.00 | 0.00 | 45 | 1008.2 |
| 20260502193944 | 11 | 353 | 0.0 | 0.0 | 0.00 | 0.00 | 0.00 | 47 | 1008.6 |
| 20260502193442 | 11 | 310 | 3.2 | 4.8 | 0.00 | 0.00 | 0.00 | 48 | 1008.3 |
| 20260502192937 | 11 | 17 | 4.8 | 6.4 | 0.00 | 0.00 | 0.00 | 45 | 1008.5 |
| 20260502192434 | 11 | 303 | 1.6 | 3.2 | 0.00 | 0.00 | 0.00 | 47 | 1008.5 |
| 20260502191931 | 11 | 328 | 4.8 | 4.8 | 0.00 | 0.00 | 0.00 | 46 | 1008.6 |
| 20260502191430 | 11 | 309 | 8.0 | 11.3 | 0.00 | 0.00 | 0.00 | 48 | 1008.6 |
| 20260502190927 | 12 | 322 | 1.6 | 3.2 | 0.00 | 0.00 | 0.00 | 43 | 1008.7 |
| 20260502190424 | 12 | 331 | 4.8 | 4.8 | 0.00 | 0.00 | 0.00 | 45 | 1009.0 |
| 20260502185920 | 12 | 352 | 1.6 | 3.2 | 0.00 | 0.00 | 0.00 | 43 | 1009.0 |
| 20260502185415 | 12 | 344 | 1.6 | 3.2 | 0.00 | 0.00 | 0.00 | 45 | 1009.1 |
| 20260502184912 | 12 | 348 | 3.2 | 4.8 | 0.00 | 0.00 | 0.00 | 44 | 1009.1 |
| 20260502184408 | 12 | 350 | 4.8 | 4.8 | 0.00 | 0.00 | 0.00 | 43 | 1009.4 |
| 20260502183904 | 12 | 6 | 1.6 | 3.2 | 0.00 | 0.00 | 0.00 | 46 | 1009.2 |
| 20260502183400 | 12 | 300 | 1.6 | 1.6 | 0.00 | 0.00 | 0.00 | 50 | 1009.2 |
| 20260502182856 | 12 | 295 | 6.4 | 6.4 | 0.00 | 0.00 | 0.00 | 44 | 1009.4 |
| 20260502182352 | 11 | 266 | 1.6 | 1.6 | 0.00 | 0.00 | 0.00 | 46 | 1009.3 |
| 20260502181848 | 11 | 134 | 4.8 | 4.8 | 0.00 | 0.00 | 0.00 | 44 | 1009.3 |
| 20260502181347 | 11 | 330 | 3.2 | 3.2 | 0.00 | 0.00 | 0.00 | 50 | 1009.3 |
| 20260502180845 | 11 | 306 | 1.6 | 1.6 | 0.00 | 0.00 | 0.00 | 48 | 1009.4 |
| 20260502180341 | 11 | 16 | 3.2 | 4.8 | 0.00 | 0.00 | 0.00 | 50 | 1009.6 |
| 20260502170300 | 11 | 22 | 1.6 | 1.6 | 0.00 | 0.00 | 0.00 | 51 | 1009.6 |
| 20260502164248 | 10 | 359 | 0.0 | 1.6 | 0.00 | 0.00 | 0.00 | 56 | 1010.0 |
| 20260502163743 | 10 | 345 | 3.2 | 3.2 | 0.00 | 0.00 | 0.00 | 54 | 1010.0 |
| 20260502163240 | 11 | 334 | 4.8 | 4.8 | 0.00 | 0.00 | 0.00 | 53 | 1009.8 |
| 20260502162737 | 11 | 75 | 3.2 | 3.2 | 0.00 | 0.00 | 0.00 | 49 | 1009.9 |
| 20260502162234 | 11 | 340 | 4.8 | 4.8 | 0.00 | 0.00 | 0.00 | 50 | 1010.0 |
| 20260502161731 | 10 | 10 | 1.6 | 1.6 | 0.00 | 0.00 | 0.00 | 57 | 1010.2 |
| 20260502161227 | 10 | 2 | 4.8 | 4.8 | 0.00 | 0.00 | 0.00 | 49 | 1010.2 |
| 20260502160726 | 10 | 335 | 6.4 | 6.4 | 0.00 | 0.00 | 0.00 | 54 | 1010.3 |
| 20260502160225 | 10 | 261 | 3.2 | 3.2 | 0.00 | 0.00 | 0.00 | 52 | 1010.3 |
| 20260502152148 | 10 | 272 | 3.2 | 4.8 | 0.00 | 0.00 | 0.00 | 53 | 1010.5 |
| 20260502151646 | 10 | 9 | 0.0 | 0.0 | 0.00 | 0.00 | 0.00 | 54 | 1010.8 |
| 20260502151143 | 10 | 351 | 1.6 | 1.6 | 0.00 | 0.00 | 0.00 | 56 | 1010.5 |
| 20260502150640 | 9 | 333 | 0.0 | 0.0 | 0.00 | 0.00 | 0.00 | 59 | 1010.5 |
| 20260502150137 | 8 | 293 | 3.2 | 4.8 | 0.00 | 0.00 | 0.00 | 60 | 1010.6 |
| 20260502130525 | 7 | 356 | 1.6 | 3.2 | 0.00 | 0.00 | 0.00 | 68 | 1010.8 |
| 20260502123509 | 6 | 105 | 4.8 | 6.4 | 0.00 | 0.00 | 0.00 | 71 | 1010.9 |
| 20260502123005 | 6 | 21 | 3.2 | 3.2 | 0.00 | 0.00 | 0.00 | 72 | 1010.8 |
| 20260502122501 | 6 | 328 | 1.6 | 1.6 | 0.00 | 0.00 | 0.00 | 72 | 1010.5 |
| 20260502121959 | 6 | 10 | 1.6 | 1.6 | 0.00 | 0.00 | 0.00 | 73 | 1010.4 |
| 20260502121456 | 6 | 340 | 1.6 | 1.6 | 0.00 | 0.00 | 0.00 | 72 | 1010.8 |
| 20260502120954 | 6 | 5 | 0.0 | 0.0 | 0.00 | 0.00 | 0.00 | 74 | 1010.5 |
| 20260502120450 | 6 | 27 | 0.0 | 0.0 | 0.00 | 0.00 | 0.00 | 75 | 1010.8 |
| 20260502115444 | 5 | 35 | 3.2 | 6.4 | 0.00 | 0.00 | 0.00 | 73 | 1010.5 |
| 20260502114940 | 5 | 15 | 1.6 | 3.2 | 0.00 | 0.00 | 0.00 | 75 | 1010.8 |
| 20260502114437 | 5 | 33 | 1.6 | 3.2 | 0.00 | 0.00 | 0.00 | 75 | 1010.9 |
| 20260502113934 | 5 | 12 | 0.0 | 0.0 | 0.00 | 0.00 | 0.00 | 75 | 1010.8 |
| 20260502113432 | 5 | 2 | 0.0 | 0.0 | 0.00 | 0.00 | 0.00 | 75 | 1010.9 |
| 20260502112931 | 5 | 356 | 0.0 | 0.0 | 0.00 | 0.00 | 0.00 | 78 | 1010.8 |
| 20260502112427 | 5 | 6 | 0.0 | 0.0 | 0.00 | 0.00 | 0.00 | 78 | 1010.6 |
| 20260502111925 | 5 | 353 | 0.0 | 1.6 | 0.00 | 0.00 | 0.00 | 77 | 1010.8 |
| 20260502111422 | 5 | 349 | 0.0 | 1.6 | 0.00 | 0.00 | 0.00 | 76 | 1010.9 |
| 20260502110919 | 5 | 188 | 4.8 | 4.8 | 0.00 | 0.00 | 0.00 | 76 | 1010.9 |
| 20260502110417 | 5 | 356 | 0.0 | 0.0 | 0.00 | 0.00 | 0.00 | 77 | 1010.8 |
| 20260502105914 | 5 | 21 | 0.0 | 1.6 | 0.00 | 0.00 | 0.00 | 77 | 1010.8 |
| 20260502105411 | 5 | 351 | 1.6 | 1.6 | 0.00 | 0.00 | 0.00 | 78 | 1010.6 |
| 20260502104909 | 5 | 341 | 1.6 | 3.2 | 0.00 | 0.00 | 0.00 | 78 | 1010.9 |
| 20260502104406 | 5 | 18 | 1.6 | 3.2 | 0.00 | 0.00 | 0.00 | 78 | 1010.6 |
| 20260502103903 | 5 | 353 | 0.0 | 0.0 | 0.00 | 0.00 | 0.00 | 77 | 1010.5 |
| 20260502103401 | 5 | 288 | 3.2 | 3.2 | 0.00 | 0.00 | 0.00 | 75 | 1010.6 |
| 20260502102857 | 5 | 41 | 1.6 | 3.2 | 0.00 | 0.00 | 0.00 | 76 | 1011.0 |
| 20260502102354 | 5 | 355 | 1.6 | 1.6 | 0.00 | 0.00 | 0.00 | 77 | 1010.8 |
| 20260502101852 | 5 | 331 | 1.6 | 3.2 | 0.00 | 0.00 | 0.00 | 79 | 1010.4 |
| 20260502101350 | 5 | 354 | 0.0 | 0.0 | 0.00 | 0.00 | 0.00 | 77 | 1010.6 |
| 20260502100848 | 5 | 14 | 0.0 | 1.6 | 0.00 | 0.00 | 0.00 | 77 | 1010.5 |
| 20260502100347 | 5 | 7 | 3.2 | 3.2 | 0.00 | 0.00 | 0.00 | 78 | 1010.5 |
| 20260502091320 | 5 | 355 | 0.0 | 0.0 | 0.00 | 0.00 | 0.00 | 75 | 1010.5 |
| 20260502090818 | 5 | 354 | 0.0 | 1.6 | 0.00 | 0.00 | 0.00 | 75 | 1010.2 |
| 20260502090315 | 5 | 13 | 3.2 | 4.8 | 0.00 | 0.00 | 0.00 | 75 | 1010.6 |
| 20260502071210 | 6 | 1 | 3.2 | 3.2 | 0.00 | 0.00 | 0.00 | 76 | 1009.8 |
| 20260502070708 | 6 | 3 | 3.2 | 3.2 | 0.00 | 0.00 | 0.00 | 78 | 1009.8 |
| 20260502070206 | 6 | 355 | 1.6 | 1.6 | 0.00 | 0.00 | 0.00 | 77 | 1010.0 |
| 20260502065704 | 7 | 357 | 1.6 | 1.6 | 0.00 | 0.00 | 0.00 | 75 | 1009.8 |
| 20260502065201 | 7 | 338 | 1.6 | 3.2 | 0.00 | 0.00 | 0.00 | 75 | 1009.8 |
| 20260502064700 | 7 | 331 | 1.6 | 1.6 | 0.00 | 0.00 | 0.00 | 75 | 1009.5 |
| 20260502064156 | 7 | 325 | 1.6 | 3.2 | 0.00 | 0.00 | 0.00 | 75 | 1009.8 |
| 20260502063654 | 7 | 5 | 3.2 | 3.2 | 0.00 | 0.00 | 0.00 | 73 | 1009.7 |
| 20260502063152 | 7 | 339 | 4.8 | 6.4 | 0.00 | 0.00 | 0.00 | 74 | 1009.6 |
| 20260502062649 | 7 | 345 | 3.2 | 3.2 | 0.00 | 0.00 | 0.00 | 74 | 1009.4 |
| 20260502062146 | 7 | 253 | 3.2 | 9.7 | 0.00 | 0.00 | 0.00 | 73 | 1009.5 |
| 20260502061644 | 7 | 2 | 0.0 | 1.6 | 0.00 | 0.00 | 0.00 | 74 | 1009.5 |
| 20260502061142 | 7 | 302 | 1.6 | 3.2 | 0.00 | 0.00 | 0.00 | 73 | 1009.5 |
| 20260502060642 | 7 | 302 | 3.2 | 4.8 | 0.00 | 0.00 | 0.00 | 73 | 1009.6 |
| 20260502060139 | 7 | 337 | 4.8 | 6.4 | 0.00 | 0.00 | 0.00 | 72 | 1009.8 |
| 20260502055637 | 7 | 352 | 8.0 | 11.3 | 0.00 | 0.00 | 0.00 | 73 | 1009.8 |
| 20260502055134 | 7 | 347 | 3.2 | 3.2 | 0.00 | 0.00 | 0.00 | 74 | 1009.8 |
| 20260502054633 | 7 | 316 | 9.7 | 12.9 | 0.00 | 0.00 | 0.00 | 74 | 1009.8 |
| 20260502054130 | 8 | 3 | 0.0 | 1.6 | 0.00 | 0.00 | 0.00 | 74 | 1009.9 |
| 20260502053627 | 8 | 10 | 4.8 | 6.4 | 0.00 | 0.00 | 0.00 | 74 | 1009.7 |
| 20260502053125 | 8 | 331 | 1.6 | 1.6 | 0.00 | 0.00 | 0.00 | 74 | 1009.6 |
| 20260502052623 | 8 | 311 | 3.2 | 3.2 | 0.00 | 0.00 | 0.00 | 75 | 1009.6 |
| 20260502052121 | 8 | 332 | 3.2 | 4.8 | 0.00 | 0.00 | 0.00 | 75 | 1009.5 |
| 20260502051619 | 8 | 353 | 1.6 | 1.6 | 0.00 | 0.00 | 0.00 | 75 | 1009.4 |
| 20260502051117 | 8 | 333 | 3.2 | 3.2 | 0.00 | 0.00 | 0.00 | 75 | 1009.7 |
| 20260502050612 | 8 | 298 | 3.2 | 3.2 | 0.00 | 0.00 | 0.00 | 75 | 1009.4 |
| 20260502050109 | 8 | 328 | 3.2 | 3.2 | 0.00 | 0.00 | 0.00 | 75 | 1009.5 |
| 20260502045606 | 8 | 317 | 6.4 | 11.3 | 0.00 | 0.00 | 0.00 | 75 | 1009.3 |
| 20260502045103 | 8 | 310 | 3.2 | 4.8 | 0.00 | 0.00 | 0.00 | 75 | 1009.4 |
| 20260502044559 | 8 | 319 | 6.4 | 6.4 | 0.00 | 0.00 | 0.00 | 75 | 1009.5 |
| 20260502044056 | 8 | 313 | 4.8 | 4.8 | 0.00 | 0.00 | 0.00 | 76 | 1009.4 |
| 20260502043554 | 9 | 297 | 3.2 | 3.2 | 0.00 | 0.00 | 0.00 | 76 | 1009.4 |
| 20260502043050 | 9 | 333 | 1.6 | 3.2 | 0.00 | 0.00 | 0.00 | 75 | 1009.3 |
| 20260502042545 | 10 | 346 | 4.8 | 4.8 | 0.00 | 0.00 | 0.00 | 74 | 1009.4 |
| 20260502042043 | 10 | 267 | 3.2 | 3.2 | 0.00 | 0.00 | 0.00 | 73 | 1009.8 |
| 20260502041540 | 10 | 18 | 1.6 | 1.6 | 0.00 | 0.00 | 0.00 | 73 | 1009.5 |
| 20260502041037 | 10 | 308 | 6.4 | 9.7 | 0.00 | 0.00 | 0.00 | 71 | 1009.5 |
| 20260502040533 | 10 | 317 | 1.6 | 4.8 | 0.00 | 0.00 | 0.00 | 72 | 1009.5 |
| 20260502040031 | 10 | 359 | 3.2 | 3.2 | 0.00 | 0.00 | 0.00 | 71 | 1009.1 |
| 20260502035526 | 10 | 356 | 4.8 | 4.8 | 0.00 | 0.00 | 0.00 | 70 | 1009.0 |
| 20260502035024 | 10 | 358 | 1.6 | 1.6 | 0.00 | 0.00 | 0.00 | 70 | 1009.0 |
| 20260502034522 | 10 | 319 | 4.8 | 4.8 | 0.00 | 0.00 | 0.00 | 70 | 1009.1 |
| 20260502034021 | 10 | 303 | 3.2 | 3.2 | 0.00 | 0.00 | 0.00 | 69 | 1009.0 |
| 20260502033518 | 10 | 212 | 3.2 | 4.8 | 0.00 | 0.00 | 0.00 | 70 | 1009.3 |
| 20260502033015 | 10 | 339 | 0.0 | 1.6 | 0.00 | 0.00 | 0.00 | 69 | 1009.1 |
| 20260502032511 | 10 | 335 | 1.6 | 3.2 | 0.00 | 0.00 | 0.00 | 70 | 1009.0 |
| 20260502032008 | 10 | 301 | 3.2 | 3.2 | 0.00 | 0.00 | 0.00 | 69 | 1009.0 |
| 20260502031506 | 10 | 4 | 0.0 | 0.0 | 0.00 | 0.00 | 0.00 | 68 | 1009.0 |
| 20260502031004 | 10 | 5 | 0.0 | 0.0 | 0.00 | 0.00 | 0.00 | 68 | 1008.6 |
| 20260502030502 | 10 | 345 | 3.2 | 4.8 | 0.00 | 0.00 | 0.00 | 69 | 1008.5 |
| 20260502030000 | 10 | 342 | 3.2 | 4.8 | 0.00 | 0.00 | 0.00 | 68 | 1008.6 |
| 20260502025456 | 10 | 292 | 4.8 | 4.8 | 0.00 | 0.00 | 0.00 | 68 | 1008.6 |
| 20260502024954 | 10 | 330 | 3.2 | 3.2 | 0.00 | 0.00 | 0.00 | 69 | 1008.8 |
| 20260502024452 | 10 | 329 | 6.4 | 6.4 | 0.00 | 0.00 | 0.00 | 67 | 1009.0 |
| 20260502023950 | 10 | 254 | 4.8 | 4.8 | 0.00 | 0.00 | 0.00 | 67 | 1008.9 |
| 20260502023447 | 10 | 331 | 1.6 | 1.6 | 0.00 | 0.00 | 0.00 | 68 | 1009.0 |
| 20260502022945 | 10 | 253 | 4.8 | 6.4 | 0.00 | 0.00 | 0.00 | 69 | 1008.5 |
| 20260502022441 | 11 | 338 | 3.2 | 4.8 | 0.00 | 0.00 | 0.00 | 71 | 1008.6 |
| 20260502021938 | 11 | 22 | 4.8 | 4.8 | 0.00 | 0.00 | 0.00 | 70 | 1008.7 |
| 20260502021436 | 11 | 336 | 3.2 | 3.2 | 0.00 | 0.00 | 0.00 | 70 | 1008.8 |
| 20260502020932 | 11 | 333 | 4.8 | 6.4 | 0.00 | 0.00 | 0.00 | 69 | 1008.6 |
| 20260502020431 | 11 | 337 | 1.6 | 1.6 | 0.00 | 0.00 | 0.00 | 71 | 1009.2 |
| 20260502015926 | 11 | 305 | 3.2 | 4.8 | 0.00 | 0.00 | 0.00 | 70 | 1008.9 |